Dewpoint
-2 -1 -1 -4 -4 -2 4 6 7 6 9 13 14 13 13 11 13 14 15 15 15 15 13 14 13 13 13 14 14 13 12 13 13 13 12 12 14 14 14 14 13 13 13 14
3 3 -1 -1 -1 0 3 4 6 5 4 7 13 14 13 12 12 14 14 15 15 15 14 14 13 13 12 13 14 14 13 12 13 13 12 9 13 12 12 13 13 13 13 15
3 3 2 3 2 2 3 4 4 5 4 9 12 15 13 12 12 13 13 14 14 14 15 15 14 14 12 13 13 13 13 13 13 12 12 11 8 10 13 13 13 13 14 15
-2 -0 2 3 3 1 4 2 3 3 5 10 10 17 15 13 13 12 12 12 13 13 14 14 15 14 13 13 12 13 13 12 12 12 12 13 8 7 6 8 12 13 13 16
-3 -0 2 4 4 1 3 2 3 3 4 5 8 14 14 13 13 12 11 11 12 12 12 14 14 14 14 14 12 13 13 12 12 12 12 13 13 6 6 8 12 12 12 14
-3 -5 -0 1 1 1 0 0 0 0 1 5 4 7 10 14 12 10 9 11 12 13 12 12 13 13 14 15 14 13 12 12 12 12 12 12 12 10 8 10 12 13 13 13
-4 -3 -4 -2 2 1 1 1 4 5 4 5 2 5 6 11 10 9 9 9 11 12 12 12 12 12 13 14 13 13 12 12 12 12 12 11 12 11 8 9 11 13 13 13
1 -0 -3 -1 1 3 2 1 4 6 5 4 2 5 3 6 9 9 10 9 10 11 11 11 12 12 12 12 12 12 12 12 12 13 12 11 10 11 10 8 9 11 13 13
8 3 -1 -2 -1 1 3 2 -0 0 -2 1 1 -0 -2 -2 3 3 8 9 10 11 11 11 11 12 12 12 12 12 12 12 12 12 12 11 10 10 10 8 9 9 11 12
5 7 2 -2 -3 -0 2 -2 1 -1 5 3 -0 0 1 -2 -2 -2 7 9 10 12 12 12 11 12 12 12 11 11 12 12 12 12 12 12 11 10 8 8 7 9 10 13
3 5 4 1 -2 -0 3 2 -2 -1 -2 1 1 -1 -3 -2 -2 -2 3 9 10 12 12 12 11 11 12 12 12 11 12 12 12 12 12 12 11 10 9 7 6 7 9 11
2 5 7 3 -1 -5 0 1 -2 -0 -1 -2 -1 -2 -5 -4 -2 -3 -3 7 10 11 11 11 11 11 12 12 12 11 11 12 11 10 11 11 11 11 9 7 5 5 6 9
4 7 8 4 -0 -4 -3 -3 -4 -5 -4 -2 -2 -3 -6 -6 -2 -2 -4 -1 8 10 11 11 11 11 11 12 12 12 11 11 11 11 11 11 11 11 10 7 5 3 3 5
5 6 7 8 5 3 3 2 -3 -4 -2 -3 -3 -5 -7 -7 -4 1 -3 -2 5 10 10 11 11 11 11 11 11 11 11 10 11 11 10 10 10 10 10 7 5 3 2 4
5 6 4 1 0 1 3 2 2 -3 -4 -3 -4 -2 -4 -6 -4 3 -1 -1 4 9 10 11 11 11 11 11 11 11 11 10 10 10 10 9 8 8 8 7 6 5 5 4
3 5 3 2 1 2 4 3 2 1 -5 -3 -4 -3 -3 -5 -1 4 3 5 5 9 10 11 11 11 11 11 10 11 10 10 10 10 10 10 10 9 8 7 7 4 5 5
4 4 4 4 3 4 5 4 5 1 -5 -5 -4 -5 0 1 6 8 5 5 6 9 10 11 11 11 11 10 10 10 10 11 10 10 10 10 10 10 10 10 10 9 7 6
3 3 3 4 4 8 5 2 2 8 7 6 8 9 6 11 11 12 12 11 9 8 8 10 11 11 11 11 11 10 11 10 10 10 10 10 11 11 11 12 13 14 13 13
0 3 4 4 7 5 6 4 4 5 8 4 8 9 10 9 10 11 13 14 15 14 11 8 8 10 11 11 11 11 12 11 10 11 11 10 11 11 12 13 13 13 14 15
-1 3 5 2 6 11 6 4 3 5 9 4 4 7 8 7 12 10 12 11 14 15 13 12 9 8 7 8 11 13 12 12 11 10 10 11 12 12 12 13 13 14 14 14
2 4 6 3 4 9 3 5 3 9 8 3 4 5 5 7 7 6 7 9 10 13 16 14 10 9 11 7 6 11 15 14 13 13 12 12 12 13 13 14 14 15 15 15
6 7 7 6 7 10 3 4 7 4 2 2 3 1 3 4 3 3 3 4 7 10 12 14 15 13 12 9 6 6 7 10 10 14 15 14 14 14 14 15 15 15 16 16
6 5 6 5 5 2 1 4 5 4 2 2 3 2 2 0 3 2 2 2 3 6 8 7 8 14 14 11 7 8 10 7 8 7 6 12 13 13 13 13 14 15 16 17
0 0 3 2 1 1 1 -1 2 3 2 2 0 1 2 2 2 2 1 1 1 1 4 6 4 5 12 15 15 14 14 12 10 7 5 5 3 5 10 13 14 13 15 16
2 1 3 2 1 2 1 1 1 1 1 0 -3 -2 0 1 3 1 1 1 0 0 -0 -1 2 0 -0 11 15 16 17 18 16 13 12 10 8 7 11 15 14 14 14 15
2 3 4 4 3 3 3 3 3 3 4 1 2 -3 -3 1 1 1 1 0 -0 -1 -1 -1 -0 -0 -4 -3 7 12 14 15 16 18 18 17 15 13 11 14 16 15 14 14
Wind_Speed
19 9 16 18 10 8 6 7 10 8 16 25 23 22 20 28 19 30 35 36 39 46 49 46 46 43 46 41 39 35 43 39 34 30 31 33 29 28 23 16 16 15 12 11
4 20 12 8 9 14 13 14 16 14 10 10 20 23 25 22 28 29 36 38 42 40 45 48 46 48 51 48 45 41 42 40 35 28 27 35 34 30 27 22 19 16 14 13
17 8 17 13 17 17 16 16 14 13 6 7 14 5 11 13 15 21 28 36 37 39 42 45 50 49 50 51 50 47 45 41 37 30 27 26 32 32 29 29 25 21 16 15
15 17 14 20 17 18 16 16 15 16 5 4 12 5 12 16 21 18 27 30 34 38 41 46 48 53 54 54 54 50 48 44 38 34 31 29 32 34 33 27 27 24 19 17
18 18 20 18 27 17 15 11 12 13 5 4 11 1 7 18 20 23 27 35 38 41 40 46 50 54 57 56 56 54 51 46 42 38 34 33 32 31 28 25 22 20 23 19
13 21 18 24 13 18 11 9 11 3 4 8 10 9 5 15 29 25 25 35 38 42 42 46 49 53 55 57 56 59 54 49 44 40 38 38 35 31 30 27 24 23 20 20
6 23 16 18 16 17 15 6 6 3 6 9 10 6 14 24 29 25 29 37 40 44 46 45 48 47 52 58 58 59 56 51 47 42 41 40 38 32 30 30 28 24 23 23
6 17 19 12 20 13 12 17 9 12 5 9 4 9 12 13 32 40 42 48 45 47 45 43 50 54 55 59 58 58 56 52 49 45 41 41 40 36 34 32 29 29 27 23
8 7 5 18 18 20 9 16 14 4 2 1 4 7 7 9 12 16 36 41 42 52 49 50 50 53 54 60 61 60 58 55 52 48 42 40 41 40 38 35 31 30 27 26
3 9 16 19 11 20 24 7 6 3 16 10 5 6 12 9 11 9 16 36 48 50 54 48 50 53 56 62 64 61 59 56 54 50 46 42 41 41 40 37 34 31 30 27
4 4 14 12 11 14 15 16 5 6 5 10 4 10 8 10 11 11 15 38 44 49 51 53 53 54 59 60 62 61 59 57 54 51 48 46 43 41 42 41 38 34 31 32
8 5 6 12 10 5 7 10 13 9 11 3 5 14 6 12 12 10 17 40 53 51 57 57 55 54 53 55 59 61 59 57 53 47 47 47 43 42 43 43 42 38 35 34
6 3 7 11 3 3 5 5 7 5 5 9 11 15 5 7 7 22 28 33 50 49 52 54 54 53 54 58 57 60 58 56 52 48 46 44 44 43 42 42 42 41 39 37
6 3 10 10 16 17 11 17 9 9 7 7 12 21 8 14 12 16 18 32 39 53 53 56 53 54 55 59 60 59 58 54 51 48 45 42 41 41 40 38 38 39 39 39
3 6 13 20 23 24 24 22 20 14 14 13 11 9 8 10 11 10 18 31 37 43 51 53 53 53 56 56 59 58 56 54 52 48 45 41 38 39 38 38 37 36 37 38
3 5 14 21 20 18 19 18 12 11 16 8 7 8 9 10 12 5 14 23 28 41 52 54 54 55 57 59 59 59 56 53 51 50 46 42 41 39 40 39 39 37 37 36
3 1 7 7 7 10 2 14 10 3 11 7 16 11 3 3 9 15 14 33 24 28 40 48 54 57 59 59 57 56 55 52 50 47 44 44 43 43 41 39 39 39 37 36
6 3 4 6 8 6 9 19 12 18 20 21 14 12 9 16 27 35 33 29 38 37 28 24 33 35 40 44 49 53 49 48 47 47 44 41 41 40 38 37 36 34 35 36
14 7 5 3 3 2 17 19 14 6 14 21 19 8 18 28 42 31 32 30 33 38 37 36 33 21 36 35 40 44 42 44 43 45 45 42 41 40 39 39 37 34 34 34
11 7 6 8 3 2 9 25 31 6 16 19 24 21 17 10 14 4 22 29 30 30 32 32 31 31 29 20 21 34 36 39 42 43 44 43 42 42 42 39 39 36 37 37
5 4 8 9 6 4 21 26 21 9 9 24 22 20 25 15 8 15 27 30 30 29 28 27 25 25 22 20 19 16 25 36 40 42 44 45 44 41 38 40 41 42 42 41
2 2 2 4 3 3 29 13 7 5 18 24 27 27 22 21 22 25 26 28 26 27 27 26 25 22 17 14 13 14 13 8 5 13 36 40 41 39 37 37 38 39 40 41
5 3 2 3 3 4 16 8 17 16 18 22 27 30 29 20 19 20 22 23 24 24 24 22 22 19 16 11 8 6 3 3 4 5 8 18 22 27 31 32 32 34 36 39
10 12 2 10 3 15 30 24 19 15 25 28 29 27 27 33 16 15 21 22 21 22 23 20 19 19 17 12 9 5 2 2 5 7 11 13 17 22 25 29 32 32 34 36
10 8 8 7 5 30 4 9 19 32 39 42 35 27 20 23 17 20 20 21 21 21 22 23 20 19 16 11 6 5 4 3 3 9 12 14 18 20 23 28 31 33 32 35
14 6 5 7 24 20 30 38 38 33 37 39 32 30 21 17 16 18 20 19 21 20 19 19 19 17 16 11 7 4 6 8 9 12 15 18 20 23 26 27 33 34 34 35
Wind_Direction
193 194 211 217 201 241 255 226 232 257 157 160 179 186 197 191 192 194 190 190 193 193 200 201 202 204 200 204 208 209 207 204 205 211 215 207 204 200 200 203 215 215 230 229
185 220 212 216 227 223 231 254 252 272 274 196 181 195 202 196 201 196 191 191 199 197 196 204 203 207 204 207 210 209 210 209 210 214 214 212 210 209 212 204 217 214 222 224
216 238 207 211 228 222 230 233 247 241 300 31 131 151 200 218 221 202 205 203 201 200 198 202 205 204 205 208 209 211 210 211 213 217 217 215 215 217 217 212 213 219 215 225
231 241 219 215 230 211 230 232 251 257 262 213 171 209 198 195 216 217 212 208 207 204 203 205 204 208 205 209 211 212 211 213 218 219 220 215 211 212 214 212 215 219 220 223
226 200 227 221 225 212 234 233 246 251 229 214 229 122 239 193 213 218 218 210 212 213 207 203 203 212 212 207 210 211 212 216 219 224 226 220 220 220 219 215 208 211 221 226
234 234 221 228 235 228 226 230 255 261 193 241 229 206 265 181 212 213 218 212 207 213 208 205 203 206 205 208 210 211 212 216 220 225 229 226 225 223 221 217 213 211 216 223
257 240 245 225 214 235 214 149 240 290 239 232 219 217 225 205 209 208 206 215 208 211 206 205 199 193 195 202 207 207 211 215 221 225 229 228 228 226 222 219 219 217 215 220
288 244 224 237 213 200 211 204 198 214 197 230 194 210 239 204 217 207 208 207 204 207 209 206 204 199 201 207 210 211 213 217 221 224 228 230 231 229 227 224 222 223 224 224
332 287 339 213 236 205 216 210 204 176 196 156 221 238 265 231 193 211 211 209 202 203 208 209 206 202 201 209 215 217 217 218 220 223 225 229 230 230 229 227 225 224 223 225
303 294 275 268 235 237 213 166 194 213 228 244 275 221 226 216 241 211 199 200 200 205 207 209 205 202 203 212 218 219 221 219 221 223 225 227 229 232 232 232 227 223 222 225
325 252 298 312 219 225 214 211 226 168 157 219 223 251 215 230 216 209 193 193 204 202 205 206 206 203 205 209 215 220 220 221 222 224 226 227 229 231 233 234 232 228 225 223
24 292 288 259 309 231 256 191 199 206 225 212 190 253 240 213 231 215 220 196 201 201 202 201 205 202 200 204 212 218 222 221 222 224 226 228 229 229 231 233 235 234 230 226
38 327 316 315 95 208 231 213 192 143 142 202 207 248 234 252 238 241 232 186 196 195 197 196 200 198 200 203 209 215 220 223 223 223 224 228 230 232 232 233 236 237 236 232
74 248 265 275 296 304 294 314 246 189 189 180 216 250 289 287 293 293 200 185 175 188 190 193 195 196 199 205 210 215 220 223 223 224 225 227 230 232 235 235 235 238 239 238
126 265 273 269 275 274 265 265 271 210 205 192 217 209 241 255 272 257 182 174 167 179 185 187 190 193 199 204 211 217 220 221 222 224 225 226 227 231 235 238 239 237 239 241
300 255 310 289 265 239 243 250 241 252 206 145 192 241 226 254 272 82 137 138 163 174 180 184 189 191 198 205 213 216 219 221 222 224 226 228 229 231 233 236 240 242 242 241
221 286 334 265 304 288 188 352 11 291 184 156 218 222 122 97 2 7 93 101 130 165 181 184 189 193 201 207 210 215 219 218 221 225 228 230 232 234 236 238 240 241 243 244
195 227 222 267 302 165 119 28 37 63 34 17 356 334 109 107 74 51 51 73 89 107 134 170 191 192 199 205 210 216 214 218 221 226 228 231 234 236 237 238 240 242 243 246
196 196 265 261 285 249 21 3 346 14 38 12 1 100 116 110 73 40 51 67 78 88 93 96 100 146 200 201 214 220 216 219 223 227 229 233 236 238 239 240 242 244 244 247
183 193 255 311 300 28 0 338 334 132 37 12 16 23 22 22 82 10 46 64 67 82 95 98 103 104 104 106 198 216 223 228 230 234 238 237 239 243 243 245 247 249 249 251
174 244 260 292 257 91 355 353 7 60 17 360 11 23 39 54 56 54 65 64 64 65 75 90 105 104 97 102 96 101 211 226 235 237 240 244 244 246 253 255 253 251 251 253
121 217 348 310 3 68 350 8 59 287 347 360 356 3 33 52 43 42 50 50 53 58 65 71 84 91 96 105 109 104 110 126 183 238 244 247 248 250 251 253 255 254 252 252
61 339 334 340 275 43 341 348 295 309 347 353 355 349 3 22 32 20 28 34 35 41 46 54 63 77 88 94 109 111 79 203 215 234 227 235 240 244 250 254 254 253 253 252
9 13 15 323 79 344 319 310 292 302 331 325 328 340 8 10 8 20 16 13 15 23 26 31 44 56 60 77 91 92 31 305 263 273 269 263 249 244 247 250 252 254 253 251
353 344 305 286 287 323 334 320 312 305 307 305 311 317 340 7 40 15 9 2 356 2 8 9 13 20 25 40 67 63 51 21 305 270 271 273 272 264 250 246 249 251 254 256
353 333 338 309 310 287 281 297 303 298 296 297 305 305 311 338 346 343 343 345 341 339 342 347 345 347 356 3 17 12 345 332 310 290 283 279 274 273 263 251 245 246 250 254
Height
1460 1470 1466 1464 1470 1472 1472 1475 1477 1463 1461 1471 1478 1489 1484 1485 1496 1499 1499 1504 1504 1503 1510 1517 1522 1528 1534 1536 1540 1544 1548 1553 1558 1561 1563 1567 1570 1573 1575 1576 1579 1581 1583 1584
1460 1456 1454 1459 1462 1467 1468 1471 1467 1458 1455 1459 1472 1480 1471 1479 1479 1485 1491 1493 1497 1503 1504 1511 1516 1522 1527 1530 1534 1539 1543 1549 1553 1557 1559 1563 1568 1570 1573 1575 1577 1579 1581 1582
1451 1445 1448 1453 1457 1461 1461 1466 1464 1465 1456 1457 1468 1493 1490 1484 1484 1486 1489 1490 1493 1496 1500 1504 1509 1513 1519 1524 1528 1532 1538 1543 1548 1553 1557 1560 1565 1567 1569 1571 1573 1576 1579 1581
1445 1440 1445 1448 1449 1451 1464 1449 1454 1456 1466 1482 1458 1507 1485 1479 1479 1479 1479 1481 1486 1489 1494 1499 1502 1507 1511 1516 1523 1528 1533 1538 1543 1548 1552 1555 1556 1558 1561 1566 1571 1574 1576 1579
1433 1435 1439 1444 1439 1442 1449 1448 1452 1454 1466 1470 1464 1486 1473 1470 1477 1468 1462 1468 1473 1479 1485 1489 1493 1497 1502 1510 1516 1522 1527 1532 1537 1542 1547 1550 1553 1555 1559 1563 1568 1570 1573 1576
1427 1427 1429 1431 1434 1438 1440 1448 1451 1455 1466 1485 1466 1469 1475 1468 1457 1452 1452 1455 1460 1468 1476 1482 1485 1492 1498 1504 1510 1517 1522 1526 1531 1536 1540 1545 1548 1551 1555 1559 1562 1566 1570 1572
1428 1421 1421 1424 1434 1433 1439 1456 1482 1491 1483 1483 1456 1468 1448 1439 1434 1434 1438 1445 1451 1460 1468 1475 1480 1485 1490 1495 1501 1508 1515 1520 1525 1530 1534 1539 1543 1548 1551 1554 1558 1561 1565 1567
1446 1438 1418 1413 1418 1430 1434 1440 1469 1490 1491 1469 1450 1462 1435 1420 1416 1423 1430 1430 1440 1452 1459 1465 1471 1477 1482 1486 1493 1500 1506 1513 1518 1523 1528 1533 1538 1542 1546 1551 1554 1558 1561 1565
1482 1438 1406 1406 1410 1415 1428 1435 1429 1459 1457 1469 1453 1433 1420 1413 1418 1419 1424 1428 1435 1439 1448 1454 1464 1470 1476 1480 1484 1490 1498 1505 1511 1516 1522 1527 1531 1536 1540 1545 1550 1554 1558 1561
1483 1476 1420 1407 1406 1405 1406 1417 1441 1454 1466 1476 1457 1443 1426 1417 1413 1409 1409 1417 1422 1430 1438 1450 1457 1462 1468 1471 1477 1484 1491 1497 1503 1510 1516 1521 1525 1529 1534 1540 1544 1548 1553 1557
1482 1481 1439 1422 1405 1405 1409 1413 1417 1426 1448 1455 1470 1434 1403 1403 1401 1402 1403 1407 1417 1420 1428 1441 1448 1453 1459 1466 1473 1477 1484 1492 1498 1504 1510 1515 1519 1524 1528 1532 1537 1542 1548 1551
1481 1479 1469 1428 1401 1394 1395 1407 1413 1428 1445 1445 1444 1418 1390 1390 1390 1390 1391 1396 1400 1409 1416 1429 1439 1446 1454 1462 1466 1471 1477 1484 1490 1497 1503 1507 1513 1517 1521 1525 1529 1535 1540 1545
1484 1476 1471 1426 1403 1394 1400 1396 1401 1413 1416 1435 1438 1409 1384 1384 1384 1381 1377 1381 1389 1402 1411 1421 1433 1441 1446 1453 1459 1464 1470 1476 1483 1490 1496 1501 1506 1510 1513 1518 1523 1527 1532 1536
1482 1484 1477 1466 1445 1444 1428 1412 1393 1402 1417 1420 1415 1395 1390 1381 1379 1370 1360 1365 1378 1390 1400 1412 1424 1431 1438 1444 1451 1457 1463 1469 1476 1483 1488 1493 1498 1501 1506 1512 1516 1520 1524 1529
1483 1483 1476 1460 1445 1431 1419 1411 1396 1391 1390 1403 1403 1408 1392 1381 1375 1369 1359 1365 1374 1384 1396 1406 1415 1423 1431 1438 1445 1451 1457 1463 1469 1475 1480 1484 1490 1496 1500 1504 1508 1513 1517 1520
1485 1478 1474 1451 1417 1410 1407 1391 1379 1378 1378 1387 1392 1395 1379 1375 1373 1364 1361 1366 1371 1377 1387 1397 1405 1412 1421 1429 1436 1442 1449 1455 1461 1466 1470 1477 1483 1488 1492 1497 1500 1504 1508 1512
1484 1479 1479 1448 1408 1400 1400 1400 1382 1369 1371 1381 1392 1385 1376 1378 1384 1380 1369 1368 1373 1379 1386 1392 1397 1405 1414 1422 1429 1436 1441 1450 1455 1459 1465 1471 1476 1480 1484 1489 1493 1496 1499 1504
1472 1477 1478 1445 1412 1410 1404 1398 1394 1392 1396 1394 1391 1383 1377 1390 1387 1385 1383 1380 1380 1385 1390 1397 1404 1410 1415 1421 1427 1431 1439 1445 1450 1454 1460 1465 1469 1473 1478 1482 1485 1489 1493 1495
1459 1468 1464 1442 1414 1389 1394 1404 1410 1410 1415 1410 1398 1382 1384 1384 1376 1394 1397 1394 1393 1393 1396 1399 1404 1408 1415 1421 1426 1431 1436 1442 1446 1449 1453 1458 1462 1466 1471 1474 1478 1483 1486 1489
1451 1456 1466 1438 1423 1411 1436 1417 1397 1392 1422 1416 1410 1406 1397 1385 1400 1414 1408 1404 1402 1399 1400 1403 1406 1409 1415 1420 1423 1428 1433 1438 1441 1444 1446 1451 1455 1459 1463 1467 1471 1475 1478 1482
1453 1458 1454 1437 1423 1420 1432 1414 1396 1419 1448 1431 1425 1420 1415 1413 1419 1417 1410 1406 1408 1407 1405 1406 1406 1409 1413 1417 1422 1426 1432 1435 1438 1442 1445 1448 1450 1454 1458 1460 1464 1468 1471 1474
1454 1450 1449 1447 1431 1434 1437 1426 1435 1447 1441 1437 1431 1426 1424 1422 1421 1416 1411 1408 1408 1408 1408 1409 1409 1411 1414 1417 1420 1425 1430 1435 1437 1439 1442 1445 1447 1450 1454 1456 1459 1461 1464 1466
1456 1464 1459 1464 1452 1449 1447 1448 1442 1445 1438 1437 1434 1428 1425 1421 1417 1416 1414 1413 1413 1410 1409 1411 1412 1414 1416 1418 1420 1423 1427 1430 1433 1437 1439 1441 1444 1446 1448 1451 1453 1455 1457 1458
1461 1461 1463 1457 1447 1447 1444 1444 1440 1439 1434 1433 1435 1431 1424 1421 1417 1416 1413 1414 1415 1413 1411 1411 1412 1413 1416 1419 1420 1421 1424 1428 1430 1433 1436 1437 1438 1440 1442 1444 1446 1448 1449 1451
1472 1464 1462 1457 1453 1442 1433 1440 1444 1431 1433 1425 1427 1430 1425 1424 1421 1416 1416 1416 1416 1412 1409 1408 1408 1412 1415 1417 1418 1419 1421 1424 1426 1428 1430 1430 1432 1434 1436 1438 1439 1440 1442 1443
1474 1468 1461 1451 1454 1453 1439 1436 1435 1437 1431 1428 1425 1420 1419 1421 1420 1421 1419 1418 1417 1416 1417 1417 1417 1416 1415 1414 1415 1417 1419 1421 1422 1423 1424 1425 1426 1427 1428 1431 1433 1434 1435 1436